Home > Weather > Strathcona County > Past weeks

Flag for Canada Weather for the Past 2 Weeks in Strathcona County, Alberta, Canada

Now
32 °F

Chilly.


Feels Like: 25 °F
Forecast: 22 / 29 °F
Wind: 8 mph from Northwest

Location: Edmonton Municipal

Current Time: Feb 6, 2016 at 9:52:52 PM

Latest Report: Feb 6, 2016 at 9:00 PM


Visibility: N/A

Pressure: 30.09 "Hg (27.47 "Hg at 728m altitude)

Humidity: 62%

Dew point: 20 °F

Location of Strathcona CountyLocation

Historic Weather in Strathcona County — Graph

°F

Strathcona County Temperature Yesterday

Maximum temperature yesterday: 41 °F (at 3:00 PM)
Minimum temperature yesterday: 19 °F (at 1:00 AM)
Average temperature yesterday: 28 °F

High & Low Weather Summary for the Past Weeks

 TemperatureHumidityPressure
High48 °F (Jan 28, 6:00 PM)100% (Jan 23, 2:00 AM)30.17 "Hg (Jan 23, 2:00 AM)
Low8 °F (Jan 25, 7:00 AM)32% (Feb 6, 1:00 PM)29.30 "Hg (Jan 28, 3:00 PM)
Average27 °F75%29.87 "Hg
* Reported Jan 22 8:00 PM — Feb 6 8:00 PM, Strathcona County, Weather by CustomWeather, © 2016

Note: Actual official high and low records may vary slightly from our data, if they occured in-between our weather recording intervals... More about our weather records

Advertising

Strathcona County Weather History for the Previous 24 Hours

 ConditionsComfort  
Time TempWeatherWind HumidityBarometerVisibility
8:00 PM
Sat, Feb 6
33 °FChilly.10 mph61%30.06 "HgN/A
7:00 PM34 °FChilly.17 mph60%30.03 "HgN/A
6:00 PM35 °FChilly.16 mph59%29.99 "HgN/A
5:00 PM37 °FChilly.22 mph51%29.93 "HgN/A
3:00 PM41 °FQuite cool.18 mph40%29.80 "HgN/A
2:00 PM41 °FQuite cool.24 mph33%29.76 "HgN/A
1:00 PM43 °FQuite cool.22 mph32%29.74 "HgN/A
12:00 PM42 °FQuite cool.17 mph36%29.72 "HgN/A
11:00 AM42 °FQuite cool.21 mph39%29.70 "HgN/A
10:00 AM41 °FQuite cool.20 mph39%29.66 "HgN/A
9:00 AM41 °FQuite cool.20 mph47%29.62 "HgN/A
8:00 AM38 °FChilly.15 mph58%29.58 "HgN/A
7:00 AM41 °FQuite cool.12 mph55%29.55 "HgN/A
6:00 AM42 °FQuite cool.12 mph52%29.51 "HgN/A
5:00 AM39 °FChilly.6 mph56%29.50 "HgN/A
4:00 AM38 °FChilly.6 mph59%29.47 "HgN/A
3:00 AM41 °FQuite cool.6 mph52%29.46 "HgN/A
2:00 AM47 °FCool.18 mph40%29.45 "HgN/A
1:00 AM40 °FChilly.9 mph59%29.48 "HgN/A
12:00 AM34 °FChilly.5 mph74%29.52 "HgN/A
11:00 PM
Fri, Feb 5
34 °FChilly.3 mph73%29.55 "HgN/A
10:00 PM34 °FChilly.3 mph73%29.59 "HgN/A
9:00 PM33 °FChilly.6 mph72%29.63 "HgN/A
Weather by CustomWeather, © 2016

See weather overviewHow to use our weather pages